Time,TemperatureF,DewpointF,PressureIn,WindDirection,WindDirectionDegrees,WindSpeedMPH,WindSpeedGustMPH,Humidity,HourlyPrecipIn,Conditions,Clouds,dailyrainin,SoftwareType,DateUTC
2013-02-11 00:00:00,39.7,35.9,28.41,SW,222,13.2,18.3,86,0.00,,---,0.16,VWS V14.01,2013-02-11 05:00:00,
2013-02-11 00:05:00,39.9,36.4,28.41,SW,226,15.4,17.4,87,0.00,,---,0.00,VWS V14.01,2013-02-11 05:05:00,
2013-02-11 00:10:00,39.9,36.4,28.41,SSW,203,13.6,17.4,87,0.00,,---,0.00,VWS V14.01,2013-02-11 05:10:00,
2013-02-11 00:15:00,40.1,36.5,28.41,SW,216,14.5,18.8,87,0.00,,---,0.00,VWS V14.01,2013-02-11 05:15:00,
2013-02-11 00:20:00,40.3,36.7,28.41,SW,217,11.9,12.8,87,0.00,,---,0.00,VWS V14.01,2013-02-11 05:20:00,
2013-02-11 00:25:00,40.3,36.7,28.41,SW,215,13.6,20.1,87,0.00,,---,0.00,VWS V14.01,2013-02-11 05:25:00,
2013-02-11 00:30:00,40.6,37.1,28.41,SW,222,12.8,20.1,87,0.00,,---,0.00,VWS V14.01,2013-02-11 05:30:00,
2013-02-11 00:35:00,41.2,37.6,28.41,SW,229,13.2,20.1,87,0.00,,---,0.00,VWS V14.01,2013-02-11 05:35:00,
2013-02-11 00:40:00,41.0,37.4,28.41,SSW,197,14.5,20.1,87,0.00,,---,0.00,VWS V14.01,2013-02-11 05:40:00,
2013-02-11 00:45:00,41.2,37.3,28.41,SSW,211,15.0,19.2,86,0.00,,---,0.00,VWS V14.01,2013-02-11 05:45:00,
2013-02-11 00:50:00,41.2,37.3,28.38,SSW,204,17.0,19.2,86,0.00,,---,0.00,VWS V14.01,2013-02-11 05:50:00,
2013-02-11 00:55:00,41.2,37.3,28.38,SW,217,18.3,24.2,86,0.00,,---,0.00,VWS V14.01,2013-02-11 05:55:00,
2013-02-11 01:00:00,40.8,37.3,28.38,SSW,212,13.2,15.0,87,0.00,,---,0.00,VWS V14.01,2013-02-11 06:00:00,
2013-02-11 01:05:00,41.2,37.3,28.38,SW,233,13.6,22.8,86,0.00,,---,0.00,VWS V14.01,2013-02-11 06:05:00,
2013-02-11 01:10:00,41.4,37.5,28.38,SW,222,13.6,22.8,86,0.00,,---,0.00,VWS V14.01,2013-02-11 06:10:00,
2013-02-11 01:15:00,41.4,37.8,28.38,SSW,212,15.4,22.8,87,0.00,,---,0.00,VWS V14.01,2013-02-11 06:15:00,
2013-02-11 01:20:00,41.4,37.8,28.38,SW,228,13.2,13.2,87,0.00,,---,0.00,VWS V14.01,2013-02-11 06:20:00,
2013-02-11 01:26:00,41.5,38.0,28.38,SW,230,11.9,17.9,87,0.00,,---,0.00,VWS V14.01,2013-02-11 06:26:00,
2013-02-11 01:31:00,41.7,38.1,28.38,SW,222,12.8,21.5,87,0.00,,---,0.00,VWS V14.01,2013-02-11 06:31:00,
2013-02-11 01:36:00,41.4,37.8,28.38,SW,236,17.0,21.5,87,0.00,,---,0.00,VWS V14.01,2013-02-11 06:36:00,
2013-02-11 01:41:00,41.2,37.6,28.38,SW,228,13.2,18.8,87,0.00,,---,0.00,VWS V14.01,2013-02-11 06:41:00,
2013-02-11 01:46:00,41.4,38.1,28.38,SSW,211,14.1,18.8,88,0.00,,---,0.00,VWS V14.01,2013-02-11 06:46:00,
2013-02-11 01:51:00,41.2,37.9,28.38,SW,224,12.8,18.8,88,0.00,,---,0.00,VWS V14.01,2013-02-11 06:51:00,
2013-02-11 01:56:00,41.5,38.0,28.38,SW,231,12.8,19.7,87,0.00,,---,0.00,VWS V14.01,2013-02-11 06:56:00,
2013-02-11 02:01:00,41.7,38.1,28.38,WSW,258,6.7,11.0,87,0.00,,---,0.00,VWS V14.01,2013-02-11 07:01:00,
2013-02-11 02:06:00,41.5,38.0,28.38,NNW,330,4.0,13.2,87,0.00,,---,0.00,VWS V14.01,2013-02-11 07:06:00,
2013-02-11 02:11:00,41.5,38.0,28.38,West,275,8.7,16.8,87,0.00,,---,0.00,VWS V14.01,2013-02-11 07:11:00,
2013-02-11 02:16:00,41.7,38.1,28.38,WSW,240,16.3,17.4,87,0.00,,---,0.00,VWS V14.01,2013-02-11 07:16:00,
2013-02-11 02:21:00,41.9,38.3,28.38,WSW,238,5.4,8.1,87,0.00,,---,0.00,VWS V14.01,2013-02-11 07:21:00,
2013-02-11 02:26:00,41.7,38.1,28.38,SW,233,6.3,8.7,87,0.00,,---,0.00,VWS V14.01,2013-02-11 07:26:00,
2013-02-11 02:31:00,41.7,38.1,28.38,SW,235,8.3,13.2,87,0.00,,---,0.00,VWS V14.01,2013-02-11 07:31:00,
2013-02-11 02:36:00,42.1,38.5,28.38,WSW,248,10.1,13.2,87,0.00,,---,0.00,VWS V14.01,2013-02-11 07:36:00,
2013-02-11 02:41:00,42.1,38.5,28.38,WSW,252,11.0,11.0,87,0.00,,---,0.00,VWS V14.01,2013-02-11 07:41:00,
2013-02-11 02:46:00,42.3,38.7,28.38,WSW,254,10.1,13.2,87,0.00,,---,0.00,VWS V14.01,2013-02-11 07:46:00,
2013-02-11 02:51:00,42.3,38.7,28.35,WSW,240,8.1,13.2,87,0.00,,---,0.00,VWS V14.01,2013-02-11 07:51:00,
2013-02-11 02:56:00,42.1,38.5,28.35,WSW,245,5.4,14.5,87,0.00,,---,0.00,VWS V14.01,2013-02-11 07:56:00,
2013-02-11 03:01:00,41.9,38.0,28.35,WSW,249,10.1,10.1,86,0.00,,---,0.00,VWS V14.01,2013-02-11 08:01:00,
2013-02-11 03:06:00,41.9,38.0,28.38,West,263,4.9,12.8,86,0.00,,---,0.00,VWS V14.01,2013-02-11 08:06:00,
2013-02-11 03:11:00,41.9,38.0,28.38,WSW,244,8.1,12.8,86,0.00,,---,0.00,VWS V14.01,2013-02-11 08:11:00,
2013-02-11 03:16:00,41.7,37.8,28.38,SW,226,6.3,12.8,86,0.00,,---,0.00,VWS V14.01,2013-02-11 08:16:00,
2013-02-11 03:21:00,41.9,38.3,28.35,WSW,242,8.7,11.0,87,0.00,,---,0.00,VWS V14.01,2013-02-11 08:21:00,
2013-02-11 03:27:00,41.7,37.8,28.35,WSW,239,8.3,13.2,86,0.00,,---,0.00,VWS V14.01,2013-02-11 08:27:00,
2013-02-11 03:32:00,41.7,37.8,28.35,WSW,246,11.9,14.1,86,0.00,,---,0.00,VWS V14.01,2013-02-11 08:32:00,
2013-02-11 03:37:00,41.4,36.6,28.35,West,270,8.7,15.4,83,0.00,,---,0.00,VWS V14.01,2013-02-11 08:37:00,
2013-02-11 03:42:00,41.5,35.8,28.35,West,267,12.3,12.3,80,0.00,,---,0.00,VWS V14.01,2013-02-11 08:42:00,
2013-02-11 03:47:00,41.4,34.7,28.35,West,269,11.0,15.0,77,0.00,,---,0.00,VWS V14.01,2013-02-11 08:47:00,
2013-02-11 03:52:00,41.2,33.2,28.35,SW,235,12.3,17.4,73,0.00,,---,0.00,VWS V14.01,2013-02-11 08:52:00,
2013-02-11 03:57:00,40.8,32.2,28.35,West,265,8.3,17.4,71,0.00,,---,0.00,VWS V14.01,2013-02-11 08:57:00,
2013-02-11 04:02:00,40.8,31.5,28.35,West,275,5.8,13.6,69,0.00,,---,0.00,VWS V14.01,2013-02-11 09:02:00,
2013-02-11 04:07:00,40.6,30.9,28.35,West,259,11.0,15.4,68,0.04,,---,0.04,VWS V14.01,2013-02-11 09:07:00,
2013-02-11 04:12:00,40.6,30.2,28.35,WSW,243,10.5,17.4,66,0.04,,---,0.04,VWS V14.01,2013-02-11 09:12:00,
2013-02-11 04:17:00,40.5,29.6,28.35,WSW,252,8.7,17.4,65,0.04,,---,0.04,VWS V14.01,2013-02-11 09:17:00,
2013-02-11 04:22:00,40.5,29.6,28.35,WSW,257,11.9,17.4,65,0.04,,---,0.04,VWS V14.01,2013-02-11 09:22:00,
2013-02-11 04:27:00,40.3,29.8,28.35,West,265,8.1,17.4,66,0.04,,---,0.04,VWS V14.01,2013-02-11 09:27:00,
2013-02-11 04:32:00,40.1,29.7,28.35,West,277,11.0,17.4,66,0.04,,---,0.04,VWS V14.01,2013-02-11 09:32:00,
2013-02-11 04:37:00,40.1,29.3,28.35,WSW,249,13.6,17.4,65,0.04,,---,0.04,VWS V14.01,2013-02-11 09:37:00,
2013-02-11 04:42:00,39.9,28.8,28.35,WSW,249,10.5,15.0,64,0.04,,---,0.04,VWS V14.01,2013-02-11 09:42:00,
2013-02-11 04:47:00,39.7,29.3,28.35,WSW,252,10.5,15.4,66,0.04,,---,0.04,VWS V14.01,2013-02-11 09:47:00,
2013-02-11 04:52:00,39.6,28.8,28.35,WSW,252,15.4,15.4,65,0.04,,---,0.04,VWS V14.01,2013-02-11 09:52:00,
2013-02-11 04:57:00,39.6,26.8,28.35,West,262,15.4,21.0,60,0.04,,---,0.04,VWS V14.01,2013-02-11 09:57:00,
2013-02-11 05:02:00,39.4,25.9,28.35,WSW,240,12.8,15.4,58,0.04,,---,0.04,VWS V14.01,2013-02-11 10:02:00,
2013-02-11 05:07:00,39.2,24.4,28.35,West,262,21.0,21.0,55,0.04,,---,0.04,VWS V14.01,2013-02-11 10:07:00,
2013-02-11 05:12:00,39.2,24.4,28.35,SW,231,10.1,21.0,55,0.04,,---,0.04,VWS V14.01,2013-02-11 10:12:00,
2013-02-11 05:17:00,39.2,24.0,28.35,West,273,13.2,21.0,54,0.04,,---,0.04,VWS V14.01,2013-02-11 10:17:00,
2013-02-11 05:22:00,38.8,22.7,28.35,WSW,243,10.5,16.3,52,0.00,,---,0.04,VWS V14.01,2013-02-11 10:22:00,
2013-02-11 05:27:00,38.8,22.3,28.35,WNW,297,10.5,16.3,51,0.00,,---,0.04,VWS V14.01,2013-02-11 10:27:00,
2013-02-11 05:32:00,38.7,22.6,28.35,West,259,14.5,22.8,52,0.00,,---,0.04,VWS V14.01,2013-02-11 10:32:00,
2013-02-11 05:37:00,38.7,20.2,28.35,West,277,10.1,22.8,47,0.00,,---,0.04,VWS V14.01,2013-02-11 10:37:00,
2013-02-11 05:42:00,38.3,20.4,28.35,WSW,258,5.4,15.4,48,0.00,,---,0.04,VWS V14.01,2013-02-11 10:42:00,
2013-02-11 05:47:00,38.1,19.7,28.35,WSW,249,11.0,17.4,47,0.00,,---,0.04,VWS V14.01,2013-02-11 10:47:00,
2013-02-11 05:52:00,37.9,21.0,28.35,West,263,8.7,17.4,50,0.00,,---,0.04,VWS V14.01,2013-02-11 10:52:00,
2013-02-11 05:57:00,37.8,20.3,28.35,West,263,8.7,17.4,49,0.00,,---,0.04,VWS V14.01,2013-02-11 10:57:00,
2013-02-11 06:02:00,37.6,20.2,28.35,West,263,8.7,8.7,49,0.00,,---,0.04,VWS V14.01,2013-02-11 11:02:00,
2013-02-11 06:07:00,37.4,20.5,28.35,West,263,8.7,8.7,50,0.00,,---,0.04,VWS V14.01,2013-02-11 11:07:00,
2013-02-11 06:12:00,37.2,20.3,28.35,West,263,8.7,8.7,50,0.00,,---,0.04,VWS V14.01,2013-02-11 11:12:00,
2013-02-11 06:17:00,37.0,20.1,28.35,WSW,242,15.0,17.4,50,0.00,,---,0.04,VWS V14.01,2013-02-11 11:17:00,
2013-02-11 06:22:00,36.9,20.0,28.35,West,271,13.2,15.0,50,0.00,,---,0.04,VWS V14.01,2013-02-11 11:22:00,
2013-02-11 06:27:00,36.7,20.3,28.35,WSW,248,17.9,17.9,51,0.00,,---,0.04,VWS V14.01,2013-02-11 11:27:00,
2013-02-11 06:32:00,36.7,19.8,28.35,West,260,10.5,17.9,50,0.00,,---,0.04,VWS V14.01,2013-02-11 11:32:00,
2013-02-11 06:37:00,36.5,18.2,28.35,West,268,15.4,25.1,47,0.00,,---,0.04,VWS V14.01,2013-02-11 11:37:00,
2013-02-11 06:42:00,36.3,18.0,28.35,WSW,252,13.2,13.2,47,0.00,,---,0.04,VWS V14.01,2013-02-11 11:42:00,
2013-02-11 06:47:00,36.1,17.9,28.35,WSW,252,13.2,13.2,47,0.00,,---,0.04,VWS V14.01,2013-02-11 11:47:00,
2013-02-11 06:52:00,36.1,17.4,28.35,WSW,252,13.2,13.2,46,0.00,,---,0.04,VWS V14.01,2013-02-11 11:52:00,
2013-02-11 06:57:00,36.0,18.2,28.35,WSW,252,23.3,23.3,48,0.00,,---,0.04,VWS V14.01,2013-02-11 11:57:00,
2013-02-11 07:02:00,35.8,17.0,28.35,WSW,239,19.2,19.2,46,0.00,,---,0.04,VWS V14.01,2013-02-11 12:02:00,
2013-02-11 07:07:00,35.6,16.9,28.35,WNW,289,8.7,19.2,46,0.00,,---,0.04,VWS V14.01,2013-02-11 12:07:00,
2013-02-11 07:12:00,35.6,16.9,28.35,WNW,289,8.7,19.2,46,0.00,,---,0.04,VWS V14.01,2013-02-11 12:12:00,
2013-02-11 07:17:00,35.6,16.4,28.35,West,276,15.4,19.2,45,0.00,,---,0.04,VWS V14.01,2013-02-11 12:17:00,
2013-02-11 07:23:00,35.6,15.9,28.35,West,276,15.4,15.4,44,0.00,,---,0.04,VWS V14.01,2013-02-11 12:23:00,
2013-02-11 07:28:00,35.4,16.2,28.35,West,276,15.4,15.4,45,0.00,,---,0.04,VWS V14.01,2013-02-11 12:28:00,
2013-02-11 07:33:00,35.2,16.5,28.38,West,276,15.4,15.4,46,0.00,,---,0.04,VWS V14.01,2013-02-11 12:33:00,
2013-02-11 07:38:00,35.2,16.5,28.38,West,276,15.4,15.4,46,0.00,,---,0.04,VWS V14.01,2013-02-11 12:38:00,
2013-02-11 07:43:00,35.1,15.9,28.38,NW,326,15.0,15.4,45,0.00,,---,0.04,VWS V14.01,2013-02-11 12:43:00,
2013-02-11 07:48:00,35.1,16.4,28.38,West,264,8.1,15.4,46,0.00,,---,0.04,VWS V14.01,2013-02-11 12:48:00,
2013-02-11 07:53:00,35.1,16.4,28.38,West,279,17.4,23.3,46,0.00,,---,0.04,VWS V14.01,2013-02-11 12:53:00,
2013-02-11 07:58:00,34.9,16.2,28.38,WSW,258,21.0,23.3,46,0.00,,---,0.04,VWS V14.01,2013-02-11 12:58:00,
2013-02-11 08:03:00,34.9,15.7,28.38,SW,221,15.4,15.4,45,0.00,,---,0.04,VWS V14.01,2013-02-11 13:03:00,
2013-02-11 08:08:00,34.9,15.7,28.38,WSW,251,16.3,20.1,45,0.00,,---,0.04,VWS V14.01,2013-02-11 13:08:00,
2013-02-11 08:13:00,34.5,15.4,28.38,West,274,11.0,20.1,45,0.00,,---,0.04,VWS V14.01,2013-02-11 13:13:00,
2013-02-11 08:18:00,34.5,15.9,28.38,WSW,257,17.9,20.1,46,0.00,,---,0.04,VWS V14.01,2013-02-11 13:18:00,
2013-02-11 08:23:00,34.3,16.7,28.38,WSW,255,12.8,18.8,48,0.00,,---,0.04,VWS V14.01,2013-02-11 13:23:00,
2013-02-11 08:28:00,34.2,17.0,28.38,WSW,255,12.8,18.8,49,0.00,,---,0.04,VWS V14.01,2013-02-11 13:28:00,
2013-02-11 08:33:00,34.2,17.5,28.38,West,267,11.0,18.8,50,0.00,,---,0.04,VWS V14.01,2013-02-11 13:33:00,
2013-02-11 08:38:00,34.0,17.8,28.38,WSW,245,15.9,18.8,51,0.00,,---,0.04,VWS V14.01,2013-02-11 13:38:00,
2013-02-11 08:43:00,33.8,17.6,28.38,WSW,256,17.0,17.0,51,0.00,,---,0.04,VWS V14.01,2013-02-11 13:43:00,
2013-02-11 08:48:00,33.8,18.9,28.38,WSW,256,17.0,17.0,54,0.00,,---,0.04,VWS V14.01,2013-02-11 13:48:00,
2013-02-11 08:53:00,33.6,18.3,28.38,West,278,15.4,17.0,53,0.00,,---,0.04,VWS V14.01,2013-02-11 13:53:00,
2013-02-11 08:58:00,33.6,18.3,28.38,West,278,15.4,17.0,53,0.00,,---,0.04,VWS V14.01,2013-02-11 13:58:00,
2013-02-11 09:03:00,33.6,18.8,28.38,WSW,237,17.9,20.6,54,0.00,,---,0.04,VWS V14.01,2013-02-11 14:03:00,
2013-02-11 09:08:00,33.8,19.4,28.38,WNW,294,8.1,20.6,55,0.00,,---,0.04,VWS V14.01,2013-02-11 14:08:00,
2013-02-11 09:13:00,34.0,19.5,28.38,WSW,257,8.1,20.6,55,0.00,,---,0.04,VWS V14.01,2013-02-11 14:13:00,
2013-02-11 09:18:00,34.2,19.3,28.38,West,275,9.2,20.6,54,0.00,,---,0.04,VWS V14.01,2013-02-11 14:18:00,
2013-02-11 09:23:00,34.2,19.3,28.38,WNW,289,12.3,12.8,54,0.00,,---,0.04,VWS V14.01,2013-02-11 14:23:00,
2013-02-11 09:28:00,34.0,20.0,28.38,WSW,249,12.8,15.0,56,0.00,,---,0.04,VWS V14.01,2013-02-11 14:28:00,
2013-02-11 09:33:00,33.8,19.8,28.38,West,280,11.0,21.9,56,0.00,,---,0.04,VWS V14.01,2013-02-11 14:33:00,
2013-02-11 09:38:00,33.6,20.0,28.38,SW,234,14.1,21.9,57,0.00,,---,0.04,VWS V14.01,2013-02-11 14:38:00,
2013-02-11 09:43:00,33.8,20.6,28.38,West,266,11.0,15.0,58,0.00,,---,0.04,VWS V14.01,2013-02-11 14:43:00,
2013-02-11 09:48:00,33.6,20.8,28.38,WSW,240,12.3,17.4,59,0.00,,---,0.04,VWS V14.01,2013-02-11 14:48:00,
2013-02-11 09:53:00,33.6,21.2,28.38,West,260,11.0,19.7,60,0.00,,---,0.04,VWS V14.01,2013-02-11 14:53:00,
2013-02-11 09:58:00,33.6,21.6,28.38,WNW,285,10.5,19.7,61,0.00,,---,0.04,VWS V14.01,2013-02-11 14:58:00,
2013-02-11 10:03:00,33.6,21.2,28.38,WNW,287,13.6,20.6,60,0.00,,---,0.04,VWS V14.01,2013-02-11 15:03:00,
2013-02-11 10:08:00,33.6,21.6,28.38,West,268,8.1,20.6,61,0.00,,---,0.04,VWS V14.01,2013-02-11 15:08:00,
2013-02-11 10:13:00,33.3,21.7,28.38,WNW,287,10.1,20.6,62,0.00,,---,0.04,VWS V14.01,2013-02-11 15:13:00,
2013-02-11 10:18:00,33.1,21.5,28.38,WSW,258,12.3,20.6,62,0.00,,---,0.04,VWS V14.01,2013-02-11 15:18:00,
2013-02-11 10:23:00,33.1,21.5,28.38,West,271,17.0,17.9,62,0.00,,---,0.04,VWS V14.01,2013-02-11 15:23:00,
2013-02-11 10:28:00,32.9,21.3,28.38,WSW,254,12.8,22.4,62,0.00,,---,0.04,VWS V14.01,2013-02-11 15:28:00,
2013-02-11 10:33:00,32.7,21.5,28.38,West,274,7.6,22.4,63,0.00,,---,0.04,VWS V14.01,2013-02-11 15:33:00,
2013-02-11 10:38:00,32.7,21.9,28.38,WSW,244,13.2,22.4,64,0.00,,---,0.04,VWS V14.01,2013-02-11 15:38:00,
2013-02-11 10:43:00,32.9,22.1,28.38,WSW,243,11.9,15.4,64,0.00,,---,0.04,VWS V14.01,2013-02-11 15:43:00,
2013-02-11 10:48:00,32.7,21.1,28.38,WSW,250,15.4,22.8,62,0.00,,---,0.04,VWS V14.01,2013-02-11 15:48:00,
2013-02-11 10:53:00,32.7,20.4,28.38,WNW,298,8.3,22.8,60,0.00,,---,0.04,VWS V14.01,2013-02-11 15:53:00,
2013-02-11 10:58:00,32.9,19.8,28.38,West,265,8.3,22.8,58,0.00,,---,0.04,VWS V14.01,2013-02-11 15:58:00,
2013-02-11 11:03:00,32.9,18.9,28.41,West,272,10.1,14.5,56,0.00,,---,0.04,VWS V14.01,2013-02-11 16:03:00,
2013-02-11 11:08:00,32.9,18.5,28.41,SW,235,11.9,17.4,55,0.00,,---,0.04,VWS V14.01,2013-02-11 16:08:00,
2013-02-11 11:13:00,33.1,17.8,28.41,WNW,291,12.8,19.2,53,0.00,,---,0.04,VWS V14.01,2013-02-11 16:13:00,
2013-02-11 11:18:00,33.3,18.0,28.41,WSW,242,13.2,19.2,53,0.00,,---,0.04,VWS V14.01,2013-02-11 16:18:00,
2013-02-11 11:23:00,33.3,17.1,28.41,WSW,252,17.4,17.4,51,0.00,,---,0.04,VWS V14.01,2013-02-11 16:23:00,
2013-02-11 11:28:00,33.3,17.5,28.41,WSW,252,17.4,17.4,52,0.00,,---,0.04,VWS V14.01,2013-02-11 16:28:00,
2013-02-11 11:33:00,33.3,17.1,28.41,West,274,19.2,19.2,51,0.00,,---,0.04,VWS V14.01,2013-02-11 16:33:00,
2013-02-11 11:38:00,33.3,17.1,28.41,West,271,5.8,19.2,51,0.00,,---,0.04,VWS V14.01,2013-02-11 16:38:00,
2013-02-11 11:43:00,33.4,16.8,28.41,WSW,249,13.2,15.9,50,0.00,,---,0.04,VWS V14.01,2013-02-11 16:43:00,
2013-02-11 11:48:00,33.3,17.1,28.41,West,278,11.0,18.3,51,0.00,,---,0.04,VWS V14.01,2013-02-11 16:48:00,
2013-02-11 11:53:00,33.3,16.6,28.41,West,263,17.9,18.3,50,0.00,,---,0.04,VWS V14.01,2013-02-11 16:53:00,
2013-02-11 11:58:00,33.3,17.1,28.41,West,265,19.2,19.2,51,0.00,,---,0.04,VWS V14.01,2013-02-11 16:58:00,
2013-02-11 12:03:00,33.3,16.6,28.41,NNW,335,10.1,15.4,50,0.00,,---,0.04,VWS V14.01,2013-02-11 17:03:00,
2013-02-11 12:08:00,33.3,17.5,28.41,West,275,18.3,18.3,52,0.00,,---,0.04,VWS V14.01,2013-02-11 17:08:00,
2013-02-11 12:13:00,33.3,17.1,28.41,WNW,287,16.8,18.3,51,0.00,,---,0.04,VWS V14.01,2013-02-11 17:13:00,
2013-02-11 12:18:00,33.4,17.3,28.41,West,277,12.3,18.3,51,0.00,,---,0.04,VWS V14.01,2013-02-11 17:18:00,
2013-02-11 12:23:00,33.3,17.5,28.41,WSW,252,10.5,13.2,52,0.00,,---,0.04,VWS V14.01,2013-02-11 17:23:00,
2013-02-11 12:28:00,33.4,17.7,28.41,West,273,12.8,23.7,52,0.00,,---,0.04,VWS V14.01,2013-02-11 17:28:00,
2013-02-11 12:33:00,33.6,18.3,28.41,WSW,249,11.0,23.7,53,0.00,,---,0.04,VWS V14.01,2013-02-11 17:33:00,
2013-02-11 12:38:00,33.6,18.8,28.41,NW,310,15.4,23.7,54,0.00,,---,0.04,VWS V14.01,2013-02-11 17:38:00,
2013-02-11 12:46:00,33.6,19.2,28.41,West,261,12.3,16.8,55,0.00,,---,0.04,VWS V14.01,2013-02-11 17:46:00,
2013-02-11 12:51:00,34.0,19.1,28.41,West,278,8.3,17.4,54,0.00,,---,0.04,VWS V14.01,2013-02-11 17:51:00,
2013-02-11 12:57:00,34.0,18.7,28.41,WNW,297,11.0,20.1,53,0.00,,---,0.04,VWS V14.01,2013-02-11 17:57:00,
2013-02-11 13:02:00,34.3,19.0,28.41,WSW,237,14.1,14.1,53,0.00,,---,0.04,VWS V14.01,2013-02-11 18:02:00,
2013-02-11 13:07:00,34.3,19.9,28.41,WNW,300,14.5,17.9,55,0.00,,---,0.04,VWS V14.01,2013-02-11 18:07:00,
2013-02-11 13:12:00,34.5,20.5,28.41,West,279,12.3,19.7,56,0.00,,---,0.04,VWS V14.01,2013-02-11 18:12:00,
2013-02-11 13:17:00,35.1,21.0,28.41,WNW,286,8.1,19.7,56,0.00,,---,0.04,VWS V14.01,2013-02-11 18:17:00,
2013-02-11 13:22:00,35.1,19.7,28.41,West,262,15.0,15.0,53,0.00,,---,0.04,VWS V14.01,2013-02-11 18:22:00,
2013-02-11 13:27:00,35.2,19.4,28.41,West,281,13.6,15.4,52,0.00,,---,0.04,VWS V14.01,2013-02-11 18:27:00,
2013-02-11 13:32:00,35.4,19.6,28.41,West,272,8.3,17.4,52,0.00,,---,0.04,VWS V14.01,2013-02-11 18:32:00,
2013-02-11 13:37:00,35.1,19.2,28.41,West,271,13.2,19.7,52,0.00,,---,0.04,VWS V14.01,2013-02-11 18:37:00,
2013-02-11 13:42:00,34.9,19.9,28.41,WSW,242,8.3,12.8,54,0.00,,---,0.04,VWS V14.01,2013-02-11 18:42:00,
2013-02-11 13:47:00,34.5,20.5,28.41,WSW,257,13.2,19.2,56,0.00,,---,0.04,VWS V14.01,2013-02-11 18:47:00,
2013-02-11 13:52:00,34.5,22.1,28.44,West,261,7.6,20.1,60,0.00,,---,0.04,VWS V14.01,2013-02-11 18:52:00,
2013-02-11 13:57:00,34.5,22.5,28.44,West,281,13.2,20.1,61,0.00,,---,0.04,VWS V14.01,2013-02-11 18:57:00,
2013-02-11 14:02:00,34.3,21.9,28.44,West,275,12.8,20.6,60,0.00,,---,0.04,VWS V14.01,2013-02-11 19:02:00,
2013-02-11 14:07:00,34.3,22.7,28.44,West,281,10.1,20.6,62,0.00,,---,0.04,VWS V14.01,2013-02-11 19:07:00,
2013-02-11 14:12:00,34.0,22.0,28.44,West,274,8.3,20.6,61,0.00,,---,0.04,VWS V14.01,2013-02-11 19:12:00,
2013-02-11 14:17:00,33.6,22.0,28.44,NW,314,13.2,20.6,62,0.00,,---,0.04,VWS V14.01,2013-02-11 19:17:00,
2013-02-11 14:22:00,33.6,22.8,28.44,West,279,8.7,15.4,64,0.00,,---,0.04,VWS V14.01,2013-02-11 19:22:00,
2013-02-11 14:27:00,33.6,22.4,28.44,WNW,300,6.3,19.2,63,0.00,,---,0.04,VWS V14.01,2013-02-11 19:27:00,
2013-02-11 14:32:00,33.4,21.8,28.44,WNW,297,12.8,19.2,62,0.00,,---,0.04,VWS V14.01,2013-02-11 19:32:00,
2013-02-11 14:37:00,33.6,21.6,28.44,WNW,286,6.3,19.2,61,0.00,,---,0.04,VWS V14.01,2013-02-11 19:37:00,
2013-02-11 14:44:00,33.6,20.8,28.44,West,270,9.2,13.6,59,0.00,,---,0.04,VWS V14.01,2013-02-11 19:44:00,
2013-02-11 14:49:00,33.6,20.4,28.47,NW,315,10.5,15.4,58,0.00,,---,0.04,VWS V14.01,2013-02-11 19:49:00,
2013-02-11 14:54:00,33.8,20.2,28.47,WSW,246,10.5,15.4,57,0.00,,---,0.04,VWS V14.01,2013-02-11 19:54:00,
2013-02-11 14:59:00,33.8,19.8,28.47,West,278,13.2,15.4,56,0.00,,---,0.04,VWS V14.01,2013-02-11 19:59:00,
2013-02-11 15:04:00,33.8,19.8,28.47,WSW,250,8.3,14.5,56,0.00,,---,0.04,VWS V14.01,2013-02-11 20:04:00,
2013-02-11 15:09:00,33.8,19.8,28.47,SW,230,15.9,15.9,56,0.00,,---,0.04,VWS V14.01,2013-02-11 20:09:00,
2013-02-11 15:14:00,33.8,20.6,28.47,WNW,290,8.3,15.9,58,0.00,,---,0.04,VWS V14.01,2013-02-11 20:14:00,
2013-02-11 15:19:00,33.8,21.0,28.47,SW,227,6.3,15.9,59,0.00,,---,0.04,VWS V14.01,2013-02-11 20:19:00,
2013-02-11 15:24:00,33.6,20.4,28.47,WSW,239,13.2,13.2,58,0.00,,---,0.04,VWS V14.01,2013-02-11 20:24:00,
2013-02-11 15:29:00,33.6,20.8,28.47,WNW,290,11.9,13.2,59,0.00,,---,0.04,VWS V14.01,2013-02-11 20:29:00,
2013-02-11 15:34:00,33.6,20.8,28.50,NW,318,12.8,13.2,59,0.00,,---,0.04,VWS V14.01,2013-02-11 20:34:00,
2013-02-11 15:39:00,33.6,20.8,28.50,WNW,286,8.7,18.8,59,0.00,,---,0.04,VWS V14.01,2013-02-11 20:39:00,
2013-02-11 15:44:00,33.6,21.6,28.50,NW,324,4.0,21.5,61,0.00,,---,0.04,VWS V14.01,2013-02-11 20:44:00,
2013-02-11 15:49:00,33.6,21.6,28.50,WNW,283,7.2,21.5,61,0.00,,---,0.04,VWS V14.01,2013-02-11 20:49:00,
2013-02-11 15:55:00,33.6,21.6,28.50,WNW,292,8.3,21.5,61,0.00,,---,0.04,VWS V14.01,2013-02-11 20:55:00,
2013-02-11 16:00:00,33.6,22.4,28.50,West,278,5.8,21.5,63,0.00,,---,0.04,VWS V14.01,2013-02-11 21:00:00,
2013-02-11 16:05:00,33.6,22.4,28.50,West,268,10.5,10.5,63,0.00,,---,0.04,VWS V14.01,2013-02-11 21:05:00,
2013-02-11 16:10:00,33.6,22.4,28.50,WNW,288,9.6,10.5,63,0.00,,---,0.04,VWS V14.01,2013-02-11 21:10:00,
2013-02-11 16:15:00,33.6,22.4,28.50,WNW,288,9.6,10.5,63,0.00,,---,0.04,VWS V14.01,2013-02-11 21:15:00,
2013-02-11 16:20:00,33.4,22.2,28.53,WSW,251,10.5,10.5,63,0.00,,---,0.04,VWS V14.01,2013-02-11 21:20:00,
2013-02-11 16:25:00,33.4,21.8,28.53,WNW,298,5.8,10.5,62,0.00,,---,0.04,VWS V14.01,2013-02-11 21:25:00,
2013-02-11 16:30:00,33.4,21.1,28.53,WNW,298,5.8,10.5,60,0.00,,---,0.04,VWS V14.01,2013-02-11 21:30:00,
2013-02-11 16:35:00,33.4,20.7,28.53,West,273,6.3,14.1,59,0.00,,---,0.04,VWS V14.01,2013-02-11 21:35:00,
2013-02-11 16:40:00,33.4,20.7,28.53,NW,312,4.9,14.1,59,0.00,,---,0.04,VWS V14.01,2013-02-11 21:40:00,
2013-02-11 16:45:00,33.3,20.9,28.53,West,275,11.0,11.0,60,0.00,,---,0.04,VWS V14.01,2013-02-11 21:45:00,
2013-02-11 16:50:00,33.3,21.3,28.53,West,275,11.0,11.0,61,0.00,,---,0.04,VWS V14.01,2013-02-11 21:50:00,
2013-02-11 16:55:00,33.1,21.5,28.53,West,275,11.0,11.0,62,0.00,,---,0.04,VWS V14.01,2013-02-11 21:55:00,
2013-02-11 17:00:00,33.1,21.1,28.53,West,277,8.7,11.0,61,0.00,,---,0.04,VWS V14.01,2013-02-11 22:00:00,
2013-02-11 17:05:00,32.9,21.3,28.56,SW,226,6.3,15.0,62,0.00,,---,0.04,VWS V14.01,2013-02-11 22:05:00,
2013-02-11 17:10:00,32.9,21.3,28.56,SW,226,6.3,15.0,62,0.00,,---,0.04,VWS V14.01,2013-02-11 22:10:00,
2013-02-11 17:15:00,32.7,21.5,28.56,WNW,287,11.0,15.0,63,0.00,,---,0.04,VWS V14.01,2013-02-11 22:15:00,
2013-02-11 17:20:00,32.7,21.1,28.56,WNW,287,11.0,15.0,62,0.00,,---,0.04,VWS V14.01,2013-02-11 22:20:00,
2013-02-11 17:25:00,32.7,21.1,28.56,WNW,287,11.0,11.0,62,0.00,,---,0.04,VWS V14.01,2013-02-11 22:25:00,
2013-02-11 17:30:00,32.7,22.6,28.56,West,269,8.1,11.0,66,0.00,,---,0.04,VWS V14.01,2013-02-11 22:30:00,
2013-02-11 17:35:00,32.7,21.5,28.53,West,269,8.1,11.0,63,0.00,,---,0.04,VWS V14.01,2013-02-11 22:35:00,
2013-02-11 17:40:00,32.7,21.1,28.53,SW,230,8.1,11.0,62,0.00,,---,0.04,VWS V14.01,2013-02-11 22:40:00,
2013-02-11 17:45:00,32.5,20.6,28.53,SW,230,8.1,8.1,61,0.00,,---,0.04,VWS V14.01,2013-02-11 22:45:00,
2013-02-11 17:50:00,32.5,20.2,28.56,SW,230,8.1,8.1,60,0.00,,---,0.04,VWS V14.01,2013-02-11 22:50:00,
2013-02-11 17:55:00,32.5,20.6,28.56,SW,230,8.1,8.1,61,0.00,,---,0.04,VWS V14.01,2013-02-11 22:55:00,
2013-02-11 18:00:00,32.5,20.2,28.56,SW,230,8.1,8.1,60,0.00,,---,0.04,VWS V14.01,2013-02-11 23:00:00,
2013-02-11 18:05:00,32.4,20.4,28.56,SW,230,8.1,8.1,61,0.00,,---,0.04,VWS V14.01,2013-02-11 23:05:00,
2013-02-11 18:10:00,32.4,20.4,28.56,SW,230,8.1,8.1,61,0.00,,---,0.04,VWS V14.01,2013-02-11 23:10:00,
2013-02-11 18:15:00,32.4,20.4,28.56,SW,230,8.1,8.1,61,0.00,,---,0.04,VWS V14.01,2013-02-11 23:15:00,
2013-02-11 18:20:00,32.2,19.9,28.59,SW,230,8.1,8.1,60,0.00,,---,0.04,VWS V14.01,2013-02-11 23:20:00,
2013-02-11 18:25:00,32.2,19.9,28.59,SW,230,8.1,8.1,60,0.00,,---,0.04,VWS V14.01,2013-02-11 23:25:00,
2013-02-11 18:30:00,32.2,20.3,28.59,SW,230,8.1,8.1,61,0.00,,---,0.04,VWS V14.01,2013-02-11 23:30:00,
2013-02-11 18:35:00,32.0,20.1,28.59,SW,230,8.1,8.1,61,0.00,,---,0.04,VWS V14.01,2013-02-11 23:35:00,
2013-02-11 18:40:00,32.0,19.7,28.59,SW,230,8.1,8.1,60,0.00,,---,0.04,VWS V14.01,2013-02-11 23:40:00,
2013-02-11 18:45:00,31.8,20.3,28.59,SW,230,8.1,8.1,62,0.00,,---,0.04,VWS V14.01,2013-02-11 23:45:00,
2013-02-11 18:50:00,31.8,19.9,28.61,NW,313,3.6,8.1,61,0.00,,---,0.04,VWS V14.01,2013-02-11 23:50:00,
2013-02-11 18:55:00,31.8,19.1,28.61,NW,313,3.6,8.1,59,0.00,,---,0.04,VWS V14.01,2013-02-11 23:55:00,
2013-02-11 19:00:00,31.6,19.0,28.61,NW,313,3.6,3.6,59,0.00,,---,0.04,VWS V14.01,2013-02-12 00:00:00,
2013-02-11 19:05:00,31.6,18.2,28.61,NW,313,3.6,3.6,57,0.00,,---,0.04,VWS V14.01,2013-02-12 00:05:00,
2013-02-11 19:10:00,31.5,17.6,28.61,NW,313,3.6,3.6,56,0.00,,---,0.04,VWS V14.01,2013-02-12 00:10:00,
2013-02-11 19:16:00,31.3,17.8,28.61,NW,313,3.6,3.6,57,0.00,,---,0.04,VWS V14.01,2013-02-12 00:16:00,
2013-02-11 19:21:00,31.3,17.8,28.61,NW,313,3.6,3.6,57,0.00,,---,0.04,VWS V14.01,2013-02-12 00:21:00,
2013-02-11 19:26:00,31.1,17.7,28.61,NW,313,3.6,3.6,57,0.00,,---,0.04,VWS V14.01,2013-02-12 00:26:00,
2013-02-11 19:31:00,31.1,17.7,28.61,NW,313,3.6,3.6,57,0.00,,---,0.04,VWS V14.01,2013-02-12 00:31:00,
2013-02-11 19:36:00,31.1,17.2,28.61,NNW,337,9.6,9.6,56,0.00,,---,0.04,VWS V14.01,2013-02-12 00:36:00,
2013-02-11 19:41:00,31.1,17.2,28.61,NNW,337,9.6,9.6,56,0.00,,---,0.04,VWS V14.01,2013-02-12 00:41:00,
2013-02-11 19:46:00,31.1,17.2,28.61,NNW,337,9.6,9.6,56,0.00,,---,0.04,VWS V14.01,2013-02-12 00:46:00,
2013-02-11 19:51:00,31.1,17.7,28.64,NNW,335,4.0,9.6,57,0.00,,---,0.04,VWS V14.01,2013-02-12 00:51:00,
2013-02-11 19:56:00,31.1,17.7,28.64,NNW,335,4.0,9.6,57,0.00,,---,0.04,VWS V14.01,2013-02-12 00:56:00,
2013-02-11 20:01:00,31.1,17.7,28.64,NNW,335,4.0,4.0,57,0.00,,---,0.04,VWS V14.01,2013-02-12 01:01:00,
2013-02-11 20:06:00,30.9,17.9,28.64,NNW,335,4.0,4.0,58,0.00,,---,0.04,VWS V14.01,2013-02-12 01:06:00,
2013-02-11 20:11:00,30.9,17.1,28.64,NNW,335,4.0,4.0,56,0.00,,---,0.04,VWS V14.01,2013-02-12 01:11:00,
2013-02-11 20:16:00,30.7,16.5,28.64,NNW,335,4.0,4.0,55,0.00,,---,0.04,VWS V14.01,2013-02-12 01:16:00,
2013-02-11 20:21:00,30.7,16.9,28.64,NNW,335,4.0,4.0,56,0.00,,---,0.04,VWS V14.01,2013-02-12 01:21:00,
2013-02-11 20:26:00,30.6,16.3,28.64,North,350,5.8,5.8,55,0.00,,---,0.04,VWS V14.01,2013-02-12 01:26:00,
2013-02-11 20:31:00,30.6,16.3,28.64,North,350,5.8,5.8,55,0.00,,---,0.04,VWS V14.01,2013-02-12 01:31:00,
2013-02-11 20:36:00,30.6,16.3,28.64,North,350,5.8,5.8,55,0.00,,---,0.04,VWS V14.01,2013-02-12 01:36:00,
2013-02-11 20:41:00,30.6,16.7,28.64,North,350,5.8,5.8,56,0.00,,---,0.04,VWS V14.01,2013-02-12 01:41:00,
2013-02-11 20:46:00,30.4,16.6,28.64,North,350,5.8,5.8,56,0.00,,---,0.04,VWS V14.01,2013-02-12 01:46:00,
2013-02-11 20:51:00,30.4,16.2,28.67,North,350,5.8,5.8,55,0.00,,---,0.04,VWS V14.01,2013-02-12 01:51:00,
2013-02-11 20:56:00,30.4,17.4,28.67,North,353,6.3,12.8,58,0.00,,---,0.04,VWS V14.01,2013-02-12 01:56:00,
2013-02-11 21:01:00,30.2,16.8,28.67,North,353,6.3,6.3,57,0.00,,---,0.04,VWS V14.01,2013-02-12 02:01:00,
2013-02-11 21:06:00,30.2,16.8,28.67,NNE,15,8.1,17.0,57,0.00,,---,0.04,VWS V14.01,2013-02-12 02:06:00,
2013-02-11 21:11:00,30.2,16.4,28.67,North,357,15.4,17.0,56,0.00,,---,0.04,VWS V14.01,2013-02-12 02:11:00,
2013-02-11 21:16:00,30.0,15.4,28.67,North,357,15.4,17.0,54,0.00,,---,0.04,VWS V14.01,2013-02-12 02:16:00,
2013-02-11 21:21:00,30.0,15.0,28.67,North,357,15.4,15.4,53,0.00,,---,0.04,VWS V14.01,2013-02-12 02:21:00,
2013-02-11 21:26:00,30.0,14.5,28.67,North,357,15.4,15.4,52,0.00,,---,0.04,VWS V14.01,2013-02-12 02:26:00,
2013-02-11 21:31:00,30.0,14.5,28.67,North,357,15.4,15.4,52,0.00,,---,0.04,VWS V14.01,2013-02-12 02:31:00,
2013-02-11 21:36:00,29.8,14.4,28.67,North,357,15.4,15.4,52,0.00,,---,0.04,VWS V14.01,2013-02-12 02:36:00,
2013-02-11 21:49:00,29.5,14.5,28.67,North,350,15.0,15.0,53,0.00,,---,0.04,VWS V14.01,2013-02-12 02:49:00,
2013-02-11 21:54:00,29.3,14.7,28.67,North,350,15.0,15.0,54,0.00,,---,0.04,VWS V14.01,2013-02-12 02:54:00,
2013-02-11 21:59:00,29.3,14.7,28.67,NNW,344,9.2,15.0,54,0.00,,---,0.04,VWS V14.01,2013-02-12 02:59:00,
2013-02-11 22:04:00,29.3,13.9,28.70,North,6,5.8,9.2,52,0.00,,---,0.04,VWS V14.01,2013-02-12 03:04:00,
2013-02-11 22:09:00,29.1,13.3,28.70,North,6,5.8,9.2,51,0.00,,---,0.04,VWS V14.01,2013-02-12 03:09:00,
2013-02-11 22:14:00,29.1,13.3,28.70,NNW,343,9.6,12.8,51,0.00,,---,0.04,VWS V14.01,2013-02-12 03:14:00,
2013-02-11 22:19:00,29.1,13.3,28.70,North,353,5.8,12.8,51,0.00,,---,0.04,VWS V14.01,2013-02-12 03:19:00,
2013-02-11 22:24:00,28.9,12.6,28.70,NNW,339,4.9,4.9,50,0.00,,---,0.04,VWS V14.01,2013-02-12 03:24:00,
2013-02-11 22:29:00,28.9,13.1,28.70,North,353,7.6,7.6,51,0.00,,---,0.04,VWS V14.01,2013-02-12 03:29:00,
2013-02-11 22:34:00,28.9,13.5,28.70,North,10,8.3,8.3,52,0.00,,---,0.04,VWS V14.01,2013-02-12 03:34:00,
2013-02-11 22:39:00,28.8,12.9,28.70,North,350,10.5,10.5,51,0.00,,---,0.04,VWS V14.01,2013-02-12 03:39:00,
2013-02-11 22:44:00,28.8,12.5,28.70,North,350,10.5,10.5,50,0.00,,---,0.04,VWS V14.01,2013-02-12 03:44:00,
2013-02-11 22:49:00,28.8,12.9,28.70,East,80,8.1,10.5,51,0.00,,---,0.04,VWS V14.01,2013-02-12 03:49:00,
2013-02-11 22:54:00,28.8,12.5,28.70,WNW,300,4.0,10.5,50,0.00,,---,0.04,VWS V14.01,2013-02-12 03:54:00,
2013-02-11 22:59:00,28.8,12.9,28.70,WNW,300,4.0,10.5,51,0.00,,---,0.04,VWS V14.01,2013-02-12 03:59:00,
2013-02-11 23:04:00,28.8,12.9,28.70,WNW,299,3.6,8.3,51,0.00,,---,0.04,VWS V14.01,2013-02-12 04:04:00,
2013-02-11 23:09:00,28.6,13.2,28.70,WNW,299,3.6,8.3,52,0.00,,---,0.04,VWS V14.01,2013-02-12 04:09:00,
2013-02-11 23:14:00,28.6,13.2,28.70,WNW,299,3.6,8.3,52,0.00,,---,0.04,VWS V14.01,2013-02-12 04:14:00,
2013-02-11 23:19:00,28.6,12.3,28.70,WNW,299,3.6,8.3,50,0.00,,---,0.04,VWS V14.01,2013-02-12 04:19:00,
2013-02-11 23:24:00,28.6,12.3,28.70,WNW,299,3.6,3.6,50,0.00,,---,0.04,VWS V14.01,2013-02-12 04:24:00,
2013-02-11 23:29:00,28.6,12.3,28.70,WNW,299,3.6,3.6,50,0.00,,---,0.04,VWS V14.01,2013-02-12 04:29:00,
2013-02-11 23:34:00,28.6,11.9,28.70,WNW,299,3.6,3.6,49,0.00,,---,0.04,VWS V14.01,2013-02-12 04:34:00,
2013-02-11 23:39:00,28.6,11.9,28.70,WNW,299,3.6,3.6,49,0.00,,---,0.04,VWS V14.01,2013-02-12 04:39:00,
2013-02-11 23:44:00,28.6,12.3,28.70,WNW,299,3.6,3.6,50,0.00,,---,0.04,VWS V14.01,2013-02-12 04:44:00,
2013-02-11 23:49:00,28.4,12.6,28.70,WNW,299,3.6,3.6,51,0.00,,---,0.04,VWS V14.01,2013-02-12 04:49:00,
2013-02-11 23:54:00,28.4,12.1,28.70,WNW,299,3.6,3.6,50,0.00,,---,0.04,VWS V14.01,2013-02-12 04:54:00,
2013-02-11 23:59:00,28.4,11.7,28.70,WNW,299,3.6,3.6,49,0.00,,---,0.04,VWS V14.01,2013-02-12 04:59:00,